Weather Roundup
Issued by NWS

Home | Current Version | Previous Version | Graphics & Text | Print | Product List | Glossary Off
Versions: 1 2 3 4 5 6 7 8 9 10 11 12 13 14 15 16 17 18 19 20 21 22 23 24 25 26 27 28 29 30 31 32 33 34 35 36 37 38 39 40 41 42 43 44 45 46 47 48 49 50

000
NZUS93 KARX 031159
HRRWXR

CURRENT HOURLY OBSERVATIONS ACROSS
MUCH OF THE UPPER MISSISSIPPI VALLEY
NATIONAL WEATHER SERVICE LA CROSSE WI
700 AM CDT SUN MAY 03 2015


...SOUTHEAST MINNESOTA...


CITY           SKY/WX    TMP DP  RH WIND       PRES   REMARKS
ROCHESTER      CLOUDY    54  49  83 SE6       29.81R
ROCHESTER/MAYO FAIR      55  49  80 SE8       29.79F
WINONA         PTSUNNY   59  48  67 SE6       29.81R
AUSTIN         CLOUDY    54  48  82 S6        29.78S
ALBERT LEA     CLOUDY    55  52  88 S6        29.77R
DODGE CENTER   CLOUDY    55  50  82 S12       29.79R
PRESTON        CLOUDY    54  48  80 S9        29.80S
OWATONNA       CLOUDY    55  48  76 SE7       29.77S
FARIBAULT      CLOUDY    55  50  82 SE9       29.77S
$$

...ELSEWHERE IN MINNESOTA...


CITY           SKY/WX    TMP DP  RH WIND       PRES   REMARKS
MINNEAPOLIS    CLOUDY    58  50  75 E3        29.77F
INTNL FALLS    CLEAR     49  41  74 W6        29.66S
DULUTH         CLOUDY    62  50  64 SW15      29.72R
RED WING       CLOUDY    55  50  82 SE3       29.79S
REDWOOD FALLS  MOCLDY    54  50  86 E8        29.73R
MANKATO        CLOUDY    54  46  76 SE7       29.76R
WORTHINGTON    PTCLDY    52  46  82 S6        29.75S
FAIRMONT       CLOUDY    54  46  76 S10       29.75S
$$

...SOUTHWEST WISCONSIN...


CITY           SKY/WX    TMP DP  RH WIND       PRES   REMARKS
LA CROSSE      PTSUNNY   62  51  67 S8        29.81S
PRAIRIE DU CHI CLOUDY    60  47  62 E6        29.85S
BOSCOBEL       CLOUDY    62  49  62 VRB5      29.86S
LONE ROCK      NOT AVBL
PLATTEVILLE    CLOUDY    60  49  67 SE12      29.88F
FORT MC COY    MOSUNNY   60  47  64 S5        29.84S
VIROQUA        FAIR      58  49  72 S12       29.84F
WIS DELLS      NOT AVBL
$$

...ELSEWHERE IN WISCONSIN...


CITY           SKY/WX    TMP DP  RH WIND       PRES   REMARKS
MILWAUKEE      PTSUNNY   59  42  53 S6        29.94S
MADISON        CLOUDY    60  47  61 S12       29.91S
GREEN BAY      MOSUNNY   56  48  74 S6        29.89R
EAU CLAIRE     NOT AVBL
BLACK RVR FLS  FAIR      49  47  93 CALM      29.82S
MEDFORD        SUNNY     54  49  82 S6        29.83S
WAUSAU         SUNNY     56  50  80 S7        29.84R
WIS RAPIDS     SUNNY     57  48  72 S8        29.87R
MARSHFIELD     SUNNY     55  50  83 S7        29.84S
RICE LAKE      MOSUNNY   53  47  81 CALM      29.83R
$$

...NORTHEAST IOWA...


CITY           SKY/WX    TMP DP  RH WIND       PRES   REMARKS
DECORAH        CLOUDY    59  48  67 S10       29.80F
MASON CITY     CLOUDY    56  52  86 S12       29.78S
CHARLES CITY   CLOUDY    57  55  94 S14       29.79S
OELWEIN        CLOUDY    59  50  72 S15       29.82S
$$

...ELSEWHERE IN IOWA...


CITY           SKY/WX    TMP DP  RH WIND       PRES   REMARKS
DES MOINES     CLOUDY    60  56  86 N3        29.79R
IOWA CITY      CLOUDY    59  51  75 SE8       29.90S
FORT DODGE     CLOUDY    54  48  82 SE8       29.77R
$$

...NORTHERN ILLINOIS...


CITY           SKY/WX    TMP DP  RH WIND       PRES   REMARKS
CHICAGO-OHARE  PTSUNNY   57  45  64 S3        29.97S
CHICAGO-MIDWAY PTSUNNY   61  45  55 S8        29.99S
MOLINE         CLOUDY    60  54  80 S8        29.91S
ROCKFORD       CLOUDY    59  44  57 SE6       29.96R
PEORIA         PTSUNNY   61  46  57 S8        29.98R
$$

NOTE: "FAIR" INDICATES FEW OR NO CLOUDS BELOW 12,000 FEET WITH NO
SIGNIFICANT WEATHER AND/OR OBSTRUCTIONS TO VISIBILITY. WIND
SPEEDS ARE IN MILES-PER-HOUR.



USA.gov is the U.S. government's official web portal to all federal, state and local government web resources and services.